Akron Fulton International Airport
KAKR : now visible

Airfield :











YOU CAN JOIN US ON...

 
LOGIN :

Register | Disclaimer

   EN    FR    IT 

 









Legend :    VFR   Marginal VFR   IFR   Intensive IFR   Very Intensive IFR
Visi :
Ceiling :
>= 8 km
>= 3000ft
5 to 8 km
1000 to 3000 ft
1500m to 5 km
500 to 1000 ft
800 to 1500m
200 to 500 ft
< 800m
< 200 ft
Symbols :   Thunderstorms  Fog  Heavy snow  Heavy precipitations  Wind > 20 kt






- Airport Elevation : 1067 ft


KAKR - Akron Fulton International

CURRENT METAR :
  • 122054Z AUTO 15005KT 10SM CLR 03/M07 A3041 RMK AO2 SLP311 T00281067 56028 $

EXPIRED METARs :
  • 121954Z AUTO 18007KT 10SM CLR 03/M07 A3044 RMK AO2 SLP323 T00281067 $
  • 121854Z AUTO 19010KT 10SM CLR 02/M07 A3044 RMK AO2 SLP322 T00221067 $

TAF N/A



MET'MAP, your aeronautical weather chart ! - Copyright ORBIFLY December 2007 - Disclaimer

ORBIFLY MET'MAP TEAM :

Programming & Development : Alexandra Zaïnal
Concept & original design : Baudouin d'Aumeries
Assistance for programming : Marc-Olivier Méhu
Technical & hardware support : Manuel Goepfert

Contact : metmap@orbifly.com




SOURCES & CREDITS :

   NOAA       Earth
Advisory